GW2624 Weather Reports


Display with metric or nautical units.
time (UTC)temp
F
wind
direction
speed
MPH
gust
MPH
rain 1hr
in
rain 24hr
in
rain mn
in
humidity
%
barometer
mb
20260509141404 61 144 0.0 2.0 0.00 0.00 0.00 30 1006.8
20260509135405 57 144 1.0 3.0 0.00 0.00 0.00 37 1006.9
20260509134904 56 144 1.0 3.0 0.00 0.00 0.00 39 1006.9
20260509134404 55 144 2.0 3.0 0.00 0.00 0.00 40 1007.0
20260509133904 54 146 1.0 3.0 0.00 0.00 0.00 42 1007.0
20260509133404 52 150 2.0 3.0 0.00 0.00 0.00 44 1007.0
20260509131404 49 149 0.0 1.0 0.00 0.00 0.00 47 1006.9
20260509130904 48 149 0.0 3.0 0.00 0.00 0.00 47 1006.9
20260509124404 48 146 0.0 3.0 0.00 0.00 0.00 46 1006.8
20260509122404 49 145 0.0 3.0 0.00 0.00 0.00 44 1006.4
20260509115904 48 138 2.0 3.0 0.00 0.00 0.00 45 1006.1
20260509113404 49 138 2.0 3.0 0.00 0.00 0.00 43 1006.1
20260509111904 49 138 1.0 3.0 0.00 0.00 0.00 43 1006.2
20260509111404 49 137 3.0 3.0 0.00 0.00 0.00 44 1006.2
20260509110404 49 138 0.0 3.0 0.00 0.00 0.00 43 1006.1
20260509105904 49 135 2.0 3.0 0.00 0.00 0.00 43 1006.1
20260509105404 49 142 3.0 3.0 0.00 0.00 0.00 44 1006.1
20260509104403 49 146 2.0 3.0 0.00 0.00 0.00 43 1006.1
20260509103905 49 146 2.0 3.0 0.00 0.00 0.00 44 1006.0
20260509103404 49 146 3.0 3.0 0.00 0.00 0.00 43 1006.1
20260509101904 50 147 1.0 3.0 0.00 0.00 0.00 42 1006.1
20260509101404 50 147 2.0 3.0 0.00 0.00 0.00 42 1006.0
20260509095903 50 155 2.0 5.0 0.00 0.00 0.00 42 1006.0
20260509094904 50 144 0.0 5.0 0.00 0.00 0.00 41 1005.9
20260509094404 50 142 3.0 5.0 0.00 0.00 0.00 42 1006.0
20260509093904 51 137 1.0 3.0 0.00 0.00 0.00 41 1006.0
20260509092404 51 140 1.0 3.0 0.00 0.00 0.00 41 1006.0
20260509091404 51 140 1.0 3.0 0.00 0.00 0.00 41 1006.0
20260509090404 51 136 2.0 3.0 0.00 0.00 0.00 40 1006.0
20260509085904 51 131 2.0 3.0 0.00 0.00 0.00 40 1005.9
20260509083904 52 0 3.0 6.0 0.00 0.00 0.00 39 1006.0
20260509082903 52 136 2.0 3.0 0.00 0.00 0.00 39 1006.1
20260509082404 52 106 2.0 3.0 0.00 0.00 0.00 39 1006.1
20260509080904 52 1 3.0 5.0 0.00 0.00 0.00 39 1006.2
20260509080404 52 121 2.0 3.0 0.00 0.00 0.00 39 1006.2
20260509075904 52 0 2.0 3.0 0.00 0.00 0.00 39 1006.2
20260509075404 52 137 2.0 5.0 0.00 0.00 0.00 39 1006.2
20260509074903 52 133 3.0 5.0 0.00 0.00 0.00 39 1006.3
20260509074403 52 0 2.0 3.0 0.00 0.00 0.00 39 1006.3
20260509073905 52 124 1.0 3.0 0.00 0.00 0.00 38 1006.3
20260509073404 53 13 2.0 3.0 0.00 0.00 0.00 38 1006.3
20260509072904 53 0 2.0 3.0 0.00 0.00 0.00 38 1006.3
20260509072404 53 11 3.0 3.0 0.00 0.00 0.00 38 1006.3
20260509071905 52 0 3.0 3.0 0.00 0.00 0.00 38 1006.4
20260509065904 52 0 3.0 5.0 0.00 0.00 0.00 38 1006.4
20260509065404 53 1 1.0 3.0 0.00 0.00 0.00 38 1006.5
20260509064904 53 0 1.0 3.0 0.00 0.00 0.00 38 1006.5
20260509064404 53 0 1.0 3.0 0.00 0.00 0.00 37 1006.6
20260509063904 53 0 2.0 3.0 0.00 0.00 0.00 37 1006.6
20260509063404 53 0 2.0 3.0 0.00 0.00 0.00 37 1006.6
20260509062904 53 125 1.0 3.0 0.00 0.00 0.00 38 1006.6
20260509061905 53 140 2.0 3.0 0.00 0.00 0.00 38 1006.7
20260509061404 53 114 1.0 3.0 0.00 0.00 0.00 38 1006.6
20260509060904 54 145 1.0 3.0 0.00 0.00 0.00 36 1006.6
20260509055404 54 138 1.0 3.0 0.00 0.00 0.00 37 1006.6
20260509054404 54 141 3.0 3.0 0.00 0.00 0.00 35 1006.6
20260509053904 54 144 1.0 3.0 0.00 0.00 0.00 35 1006.6
20260509052904 54 144 0.0 3.0 0.00 0.00 0.00 36 1006.7
20260509052404 54 144 1.0 3.0 0.00 0.00 0.00 36 1006.7
20260509051904 55 144 2.0 3.0 0.00 0.00 0.00 35 1006.8
20260509051404 55 144 1.0 3.0 0.00 0.00 0.00 35 1006.8
20260509045903 55 147 1.0 3.0 0.00 0.00 0.00 33 1006.9
20260509045404 56 142 1.0 3.0 0.00 0.00 0.00 34 1006.9
20260509044904 56 145 1.0 2.0 0.00 0.00 0.00 33 1006.9
20260509044403 56 145 0.0 2.0 0.00 0.00 0.00 33 1006.9
20260509042904 56 144 1.0 3.0 0.00 0.00 0.00 33 1007.0
20260509042404 56 104 0.0 3.0 0.00 0.00 0.00 33 1006.9
20260509041404 57 136 0.0 2.0 0.00 0.00 0.00 33 1006.9
20260509040404 57 0 1.0 3.0 0.00 0.00 0.00 31 1006.7
20260509035904 58 0 1.0 2.0 0.00 0.00 0.00 32 1006.8
20260509035404 58 0 0.0 2.0 0.00 0.00 0.00 31 1006.7
20260509034904 59 165 0.0 2.0 0.00 0.00 0.00 30 1006.6
20260509033404 61 81 1.0 3.0 0.00 0.00 0.00 27 1006.3
20260509032903 62 158 0.0 2.0 0.00 0.00 0.00 26 1006.3
20260509032404 63 158 1.0 2.0 0.00 0.00 0.00 26 1006.3
20260509031905 63 158 1.0 2.0 0.00 0.00 0.00 24 1006.1
20260509031404 64 158 1.0 2.0 0.00 0.00 0.00 23 1006.0
20260509025404 68 236 1.0 3.0 0.00 0.00 0.00 20 1005.7
20260509024403 69 202 0.0 3.0 0.00 0.00 0.00 19 1005.5
20260509023405 69 269 2.0 6.0 0.00 0.00 0.00 17 1005.3
20260509022405 70 228 2.0 6.0 0.00 0.00 0.00 17 1005.0
20260509020404 72 245 1.0 3.0 0.00 0.00 0.00 17 1004.6
20260509014405 73 279 1.0 7.0 0.00 0.00 0.00 18 1004.4
20260509013403 74 224 1.0 3.0 0.00 0.00 0.00 17 1004.3
20260509012904 74 127 0.0 0.0 0.00 0.00 0.00 18 1004.3
20260509011405 75 328 0.0 3.0 0.00 0.00 0.00 17 1004.4
20260509005904 75 38 2.0 3.0 0.00 0.00 0.00 17 1004.5
20260509004903 75 136 1.0 2.0 0.00 0.00 0.00 16 1004.4
20260509004404 75 78 0.0 3.0 0.00 0.00 0.00 17 1004.4
20260509001904 76 116 0.0 3.0 0.00 0.00 0.00 16 1004.6
20260509000404 77 193 2.0 3.0 0.00 0.00 0.00 16 1004.7
20260508235904 77 239 2.0 7.0 0.00 0.00 0.00 15 1004.6
20260508235404 77 248 2.0 7.0 0.00 0.00 0.00 16 1004.7
20260508233904 76 269 2.0 5.0 0.00 0.00 0.00 16 1004.7
20260508233404 77 79 3.0 5.0 0.00 0.00 0.00 16 1004.7
20260508232905 77 109 2.0 7.0 0.00 0.00 0.00 15 1004.6
20260508231906 78 105 3.0 7.0 0.00 0.00 0.00 14 1004.8
20260508230905 79 31 1.0 3.0 0.00 0.00 0.00 16 1004.7
20260508224405 78 196 1.0 5.0 0.00 0.00 0.00 15 1005.0
20260508223905 78 97 1.0 5.0 0.00 0.00 0.00 16 1005.0
20260508223405 78 22 2.0 5.0 0.00 0.00 0.00 15 1005.2
20260508222905 78 305 1.0 5.0 0.00 0.00 0.00 16 1005.2
20260508221905 77 205 2.0 6.0 0.00 0.00 0.00 16 1005.4
20260508221405 78 205 2.0 6.0 0.00 0.00 0.00 16 1005.4
20260508220906 77 39 2.0 6.0 0.00 0.00 0.00 15 1005.6
20260508220405 76 203 2.0 6.0 0.00 0.00 0.00 17 1005.6
20260508215904 76 48 2.0 7.0 0.00 0.00 0.00 15 1005.6
20260508214405 76 217 5.0 10.0 0.00 0.00 0.00 16 1005.7
20260508212905 76 233 3.0 9.0 0.00 0.00 0.00 16 1006.1
20260508211905 77 202 3.0 7.0 0.00 0.00 0.00 15 1006.2
20260508211405 78 267 1.0 5.0 0.00 0.00 0.00 15 1006.3
20260508210905 78 237 2.0 5.0 0.00 0.00 0.00 16 1006.4
20260508204905 77 250 2.0 6.0 0.00 0.00 0.00 15 1006.5
20260508203905 76 217 2.0 9.0 0.00 0.00 0.00 16 1006.8
20260508202905 76 277 3.0 9.0 0.00 0.00 0.00 16 1007.0
20260508200905 76 349 2.0 8.0 0.00 0.00 0.00 15 1007.1
20260508194905 76 170 3.0 9.0 0.00 0.00 0.00 16 1007.3
20260508194405 76 325 2.0 9.0 0.00 0.00 0.00 16 1007.5
20260508193905 76 76 2.0 7.0 0.00 0.00 0.00 17 1007.5
20260508193405 76 352 2.0 7.0 0.00 0.00 0.00 17 1007.6
20260508192405 76 90 1.0 5.0 0.00 0.00 0.00 18 1007.7
20260508190905 74 238 2.0 7.0 0.00 0.00 0.00 19 1008.0
20260508190405 74 242 4.0 7.0 0.00 0.00 0.00 17 1008.1
20260508185405 75 303 2.0 7.0 0.00 0.00 0.00 18 1008.2
20260508184906 74 291 3.0 7.0 0.00 0.00 0.00 18 1008.4
20260508184406 74 343 3.0 8.0 0.00 0.00 0.00 19 1008.4
20260508183905 74 42 3.0 8.0 0.00 0.00 0.00 17 1008.4
20260508183405 74 297 2.0 6.0 0.00 0.00 0.00 18 1008.5
20260508182405 73 63 1.0 6.0 0.00 0.00 0.00 20 1008.7
20260508181405 73 327 2.0 6.0 0.00 0.00 0.00 18 1008.9
20260508180905 72 338 3.0 7.0 0.00 0.00 0.00 20 1008.9
20260508180406 72 32 2.0 7.0 0.00 0.00 0.00 20 1009.0
20260508175405 70 267 2.0 6.0 0.00 0.00 0.00 20 1009.3
20260508174905 71 268 2.0 6.0 0.00 0.00 0.00 21 1009.4
20260508173905 71 62 2.0 5.0 0.00 0.00 0.00 21 1009.6
20260508165905 69 3 1.0 3.0 0.00 0.00 0.00 23 1010.2
20260508164904 68 251 1.0 7.0 0.00 0.00 0.00 24 1010.2
20260508163905 66 247 2.0 7.0 0.00 0.00 0.00 22 1010.4
20260508162905 66 22 1.0 5.0 0.00 0.00 0.00 23 1010.4
20260508162405 65 296 1.0 6.0 0.00 0.00 0.00 25 1010.5
20260508161905 64 233 3.0 6.0 0.00 0.00 0.00 24 1010.4
20260508161405 64 230 2.0 3.0 0.00 0.00 0.00 23 1010.5
20260508160904 64 268 1.0 3.0 0.00 0.00 0.00 24 1010.5
20260508154406 62 322 3.0 6.0 0.00 0.00 0.00 24 1010.8
20260508153405 61 351 2.0 3.0 0.00 0.00 0.00 24 1010.8
20260508151405 60 300 2.0 3.0 0.00 0.00 0.00 26 1011.0
20260508145905 59 330 0.0 3.0 0.00 0.00 0.00 29 1011.0
20260508144405 58 242 0.0 5.0 0.00 0.00 0.00 31 1011.1
20260508143905 58 209 2.0 5.0 0.00 0.00 0.00 31 1011.1
20260508142905 57 257 1.0 2.0 0.00 0.00 0.00 35 1011.2
20260508141905 56 261 1.0 2.0 0.00 0.00 0.00 33 1011.4